Weather History for KFST - October, 2013

Change the Weather History Date:

Thursday, October 17, 2013

  Actual Average Record
Temperature  
Mean Temperature 64 °F -  
Max Temperature 77 °F 76 °F 98 °F (2011)
Min Temperature 51 °F 52 °F 43 °F (1999)
Degree Days  
Heating Degree Days 1    
Growing Degree Days 14 (Base 50)    
Moisture  
Dew Point 53 °F    
Average Humidity 77    
Maximum Humidity 93    
Minimum Humidity 51    
Precipitation  
Precipitation 0.00 in - - ()
Sea Level Pressure  
Sea Level Pressure 29.96 in    
Wind  
Wind Speed 7 mph (SE)    
Max Wind Speed 20 mph    
Max Gust Speed 28 mph    
Visibility 10 miles    
Events      
Averages and records for this station are not official NWS values.
T = Trace of Precipitation, MM = Missing Value Source: NWS Daily Summary

Daily Weather History Graph

Daily Weather History Graph

Search for Another Location

Airport or City:

Trip Planner

Search our weather history database for the weather conditions in past years. The results will help you decide how hot, cold, wet, or windy it might be!

Date:

Astronomy

Oct. 17, 2013 Rise Set
Actual Time 7:55 AM CDT 7:17 PM CDT
Civil Twilight 7:31 AM CDT 7:41 PM CDT
Nautical Twilight 7:03 AM CDT 8:10 PM CDT
Astronomical Twilight 6:35 AM CDT 8:38 PM CDT
Moon 6:30 PM CDT (10/17) 6:34 AM CDT (10/17)
Length of Visible Light 12h 10m
Length of Day
11h 21m
Waxing Gibbous, 98% of the Moon is Illuminated
Oct 17
Waxing Gibbous
Oct 18
Full
Oct 26
Last Quarter
Nov 3
New
Nov 9
First Quarter

Hourly Weather History & Observations

Time (CDT) Temp. Dew Point Humidity Pressure Visibility Wind Dir Wind Speed Gust Speed Precip Events Conditions
12:10 AM 54.0 °F 50.0 °F 86% 30.14 in 10.0 mi East 4.6 mph - N/A   Scattered Clouds
12:53 AM 53.1 °F 48.9 °F 86% 30.07 in 10.0 mi East 4.6 mph - N/A   Clear
1:53 AM 52.0 °F 48.9 °F 89% 30.06 in 10.0 mi ESE 4.6 mph - N/A   Clear
2:53 AM 53.1 °F 48.9 °F 86% 30.05 in 10.0 mi SE 8.1 mph - N/A   Clear
3:53 AM 52.0 °F 48.9 °F 89% 30.03 in 10.0 mi SSE 10.4 mph - N/A   Clear
4:53 AM 51.1 °F 48.9 °F 92% 30.01 in 10.0 mi SSE 6.9 mph - N/A   Clear
5:53 AM 51.1 °F 48.9 °F 92% 30.01 in 10.0 mi SE 4.6 mph - N/A   Clear
6:53 AM 51.1 °F 48.9 °F 92% 30.01 in 10.0 mi SSE 6.9 mph - N/A   Clear
7:53 AM 51.1 °F 48.9 °F 92% 30.02 in 10.0 mi SSE 6.9 mph - N/A   Clear
8:53 AM 53.1 °F 51.1 °F 93% 30.03 in 10.0 mi SSE 6.9 mph - N/A   Clear
9:53 AM 57.9 °F 53.1 °F 84% 30.04 in 10.0 mi SE 4.6 mph - N/A   Clear
10:53 AM 62.1 °F 54.0 °F 75% 30.03 in 10.0 mi Calm Calm - N/A   Clear
11:53 AM 64.9 °F 54.0 °F 68% 30.01 in 10.0 mi Variable 3.5 mph - N/A   Clear
12:53 PM 69.1 °F 55.0 °F 61% 29.99 in 10.0 mi ENE 3.5 mph - N/A   Clear
1:53 PM 71.1 °F 55.0 °F 57% 29.94 in 10.0 mi ENE 6.9 mph - N/A   Partly Cloudy
2:53 PM 75.0 °F 55.9 °F 51% 29.90 in 10.0 mi East 5.8 mph - N/A   Clear
3:53 PM 75.9 °F 57.0 °F 52% 29.87 in 10.0 mi ESE 6.9 mph - N/A   Clear
4:53 PM 77.0 °F 57.9 °F 52% 29.84 in 10.0 mi East 12.7 mph - N/A   Clear
5:53 PM 75.0 °F 57.0 °F 53% 29.83 in 10.0 mi East 15.0 mph - N/A   Clear
6:53 PM 71.1 °F 55.9 °F 59% 29.84 in 10.0 mi ESE 10.4 mph - N/A   Clear
7:53 PM 66.0 °F 55.9 °F 70% 29.85 in 10.0 mi SE 12.7 mph 21.9 mph N/A   Clear
8:53 PM 61.0 °F 55.0 °F 81% 29.86 in 10.0 mi SSE 15.0 mph - N/A   Clear
9:53 PM 59.0 °F 55.0 °F 87% 29.86 in 10.0 mi SSE 19.6 mph 27.6 mph N/A   Clear
10:53 PM 59.0 °F 55.0 °F 87% 29.86 in 10.0 mi SSE 17.3 mph - N/A   Clear
11:53 PM 59.0 °F 55.0 °F 87% 29.86 in 10.0 mi SSE 16.1 mph 24.2 mph N/A   Clear